Location: Tamazert
(32.6352°N, 5.2072°W)
Time: 03:12:36
(UTC+00:00)

Vanguard 2 Rocket - Pass Details

Date: 03 October 2022
Orbit: 555 x 3321 km, 32.9° (Epoch: 05 December)

Event Time Altitude Azimuth Distance (km) Brightness Sun altitude
Rises 22:33:35 0° 244° (WSW) 7,093 11.6 -53.8°
Reaches altitude 10° 22:38:46 10° 243° (WSW) 5,832 11.0 -54.5°
Enters shadow 22:45:02 26° 239° (WSW) 4,242 10.2 -55.4°
Maximum altitude 22:55:24 72° 163° (SSE) 2,137 - -56.7°
Drops below altitude 10° 23:04:48 10° 81° (E) 3,494 - -57.8°
Sets 23:07:07 0° 79° (ENE) 4,193 - -58.1°
